EW6987 Weather Reports


Display with metric or nautical units.
time (UTC)temp
F
wind
direction
speed
MPH
gust
MPH
rain 1hr
in
rain 24hr
in
rain mn
in
humidity
%
barometer
mb
20260504044522 53 178 7.0 15.0 0.00 0.00 0.00 65 1015.9
20260504043033 52 224 6.0 14.0 0.00 0.00 0.00 67 1016.0
20260504041515 52 166 7.0 13.0 0.00 0.00 0.00 68 1016.2
20260504040013 52 145 8.0 13.0 0.00 0.00 0.00 67 1016.4
20260504034510 52 150 5.0 11.0 0.00 0.00 0.00 68 1016.6
20260504033009 52 183 3.0 12.0 0.00 0.00 0.00 69 1016.6
20260504031507 52 142 6.0 13.0 0.00 0.00 0.00 68 1016.8
20260504030014 52 109 5.0 11.0 0.00 0.00 0.00 69 1017.0
20260504024508 52 132 3.0 12.0 0.00 0.00 0.00 68 1017.1
20260504023004 53 191 6.0 12.0 0.00 0.00 0.00 67 1017.2
20260504021504 53 188 6.0 12.0 0.00 0.00 0.00 66 1017.2
20260504020004 53 196 6.0 11.0 0.00 0.00 0.00 66 1017.3
20260504014500 53 96 3.0 12.0 0.00 0.00 0.00 66 1017.3
20260504013119 53 166 5.0 11.0 0.00 0.00 0.00 66 1017.4
20260504011601 54 134 5.0 15.0 0.00 0.00 0.00 64 1017.3
20260504010058 54 192 3.0 13.0 0.00 0.00 0.00 65 1017.4
20260504004635 54 214 8.0 16.0 0.00 0.00 0.00 63 1017.5
20260504003101 54 235 2.0 19.0 0.00 0.00 0.00 66 1017.5
20260504001622 55 285 4.0 17.0 0.00 0.00 0.00 64 1017.4
20260504000105 56 249 5.0 16.0 0.00 0.00 0.00 61 1017.2
20260503234657 58 276 4.0 15.0 0.00 0.00 0.00 55 1017.1
20260503233100 60 214 6.0 16.0 0.00 0.00 0.00 43 1016.7
20260503231553 60 125 8.0 20.0 0.00 0.00 0.00 42 1016.7
20260503230109 60 138 7.0 18.0 0.00 0.00 0.00 43 1016.9
20260503224551 62 214 7.0 16.0 0.00 0.00 0.00 42 1016.9
20260503223050 62 224 9.0 20.0 0.00 0.00 0.00 40 1017.0
20260503221556 62 233 7.0 18.0 0.00 0.00 0.00 39 1017.0
20260503220051 63 225 8.0 15.0 0.00 0.00 0.00 39 1017.1
20260503214554 62 227 7.0 19.0 0.00 0.00 0.00 39 1017.2
20260503213046 63 195 5.0 18.0 0.00 0.00 0.00 39 1017.2
20260503211544 63 200 6.0 18.0 0.00 0.00 0.00 41 1017.2
20260503210045 63 197 9.0 23.0 0.00 0.00 0.00 38 1017.3
20260503204541 63 235 8.0 20.0 0.00 0.00 0.00 38 1017.4
20260503203057 63 155 10.0 20.0 0.00 0.00 0.00 39 1017.7
20260503201540 63 202 6.0 17.0 0.00 0.00 0.00 41 1017.7
20260503200038 63 199 7.0 17.0 0.00 0.00 0.00 40 1017.9
20260503194542 63 194 9.0 18.0 0.00 0.00 0.00 37 1018.0
20260503193038 63 228 7.0 24.0 0.00 0.00 0.00 40 1018.2
20260503191540 63 176 9.0 19.0 0.00 0.00 0.00 39 1018.5
20260503190039 63 198 10.0 18.0 0.00 0.00 0.00 39 1018.7
20260503184530 63 237 6.0 20.0 0.00 0.00 0.00 40 1019.0
20260503183029 63 183 9.0 19.0 0.00 0.00 0.00 38 1019.1
20260503181525 62 168 7.0 17.0 0.00 0.00 0.00 41 1019.4
20260503180023 62 153 6.0 23.0 0.00 0.00 0.00 39 1019.7
20260503174521 63 276 6.0 18.0 0.00 0.00 0.00 42 1019.6
20260503173117 62 224 10.0 21.0 0.00 0.00 0.00 43 1019.8
20260503171528 61 209 5.0 17.0 0.00 0.00 0.00 48 1020.1
20260503170110 61 260 4.0 20.0 0.00 0.00 0.00 48 1020.3
20260503081619 41 132 2.0 5.0 0.00 0.03 0.00 77 1022.0